Cross City, FL

10:26 AM EDT on October 22, 2019 (GMT -0400)
Cross City

Weather History for KCTY - July, 2019

Change the Weather History Date:

Wednesday, July 17, 2019

  Actual Average Record
Temperature  
Mean Temperature 84 °F 82 °F  
Max Temperature 96 °F 91 °F 97 °F (2002)
Min Temperature 72 °F 72 °F 69 °F (2012)
Degree Days  
Heating Degree Days 0    
Month to date heating degree days 0  
Since 1 June heating degree days 0  
Since 1 July heating degree days 0  
Cooling Degree Days 19    
Month to date cooling degree days 315  
Year to date cooling degree days 1491  
Since 1 June cooling degree days 807  
Growing Degree Days 34 (Base 50)    
Moisture  
Dew Point 75 °F    
Average Humidity 87    
Maximum Humidity 97    
Minimum Humidity 54    
Precipitation  
Precipitation 0.08 in 0.18 in 1.27 in (2018)
Month to date precipitation 2.59 2.90  
Year to date precipitation 31.24 25.16  
Sea Level Pressure  
Sea Level Pressure 30.12 in    
Wind  
Wind Speed 3 mph (ESE)    
Max Wind Speed 9 mph    
Max Gust Speed 33 mph    
Visibility 10 miles    
Events Rain , Thunderstorm    
T = Trace of Precipitation, MM = Missing Value Source: NWS Daily Summary

Daily Weather History Graph

Daily Weather History Graph

Search for Another Location

Airport or City:

Astronomy

Jul. 17, 2019 Rise Set
Actual Time 6:43 AM EDT 8:33 PM EDT
Civil Twilight 6:16 AM EDT 9:00 PM EDT
Nautical Twilight 5:44 AM EDT 9:32 PM EDT
Astronomical Twilight 5:10 AM EDT 10:06 PM EDT
Moon 9:22 PM EDT (7/17) 7:15 AM EDT (7/17)
Length of Visible Light 14h 43m
Length of Day
13h 50m
Waxing Gibbous, 99% of the Moon is Illuminated
Jul 17
Waxing Gibbous
Jul 24
Last Quarter
Jul 31
New
Aug 7
First Quarter
Aug 15
Full

Hourly Weather History & Observations

Time (EDT) Temp. Heat Index Dew Point Humidity Pressure Visibility Wind Dir Wind Speed Gust Speed Precip Events Conditions
12:15 AM 79.0 °F - 77.5 °F 95% 30.13 in 10.0 mi Calm Calm - N/A   Clear
12:35 AM 78.4 °F - 77.2 °F 96% 30.13 in 10.0 mi Calm Calm - N/A   Clear
12:55 AM 78.8 °F - 77.7 °F 96% 30.13 in 10.0 mi NE 3.5 mph - N/A   Clear
1:15 AM 78.6 °F - 77.5 °F 96% 30.12 in 10.0 mi Calm Calm - N/A   Clear
1:35 AM 78.1 °F - 76.6 °F 95% 30.12 in 10.0 mi East 3.5 mph - N/A   Clear
1:55 AM 78.1 °F - 76.3 °F 94% 30.12 in 10.0 mi Calm Calm - N/A   Clear
2:15 AM 77.9 °F - 76.1 °F 94% 30.12 in 10.0 mi Calm Calm - N/A   Clear
2:35 AM 77.5 °F - 75.4 °F 93% 30.11 in 10.0 mi Calm Calm - N/A   Clear
2:55 AM 77.2 °F - 75.4 °F 94% 30.11 in 10.0 mi South 3.5 mph - N/A   Clear
3:15 AM 77.2 °F - 75.2 °F 94% 30.10 in 10.0 mi Calm Calm - N/A   Clear
3:35 AM 76.8 °F - 75.0 °F 94% 30.10 in 10.0 mi SSE 3.5 mph - N/A   Clear
3:55 AM 76.8 °F - 74.8 °F 94% 30.09 in 10.0 mi Calm Calm - N/A   Clear
4:15 AM 76.6 °F - 74.7 °F 94% 30.09 in 10.0 mi Calm Calm - N/A Thunderstorm Clear
4:35 AM 76.5 °F - 74.7 °F 94% 30.09 in 10.0 mi Calm Calm - N/A   Clear
4:55 AM 76.6 °F - 74.8 °F 94% 30.10 in 10.0 mi Calm Calm - N/A   Clear
5:15 AM 76.1 °F - 74.7 °F 95% 30.09 in 10.0 mi Calm Calm - N/A   Clear
5:35 AM 75.7 °F - 74.5 °F 96% 30.09 in 7.0 mi Calm Calm - N/A   Clear
5:55 AM 76.3 °F - 74.5 °F 94% 30.09 in 10.0 mi Calm Calm - N/A   Clear
6:15 AM 75.2 °F - 73.9 °F 96% 30.09 in 10.0 mi Calm Calm - N/A   Clear
6:35 AM 75.0 °F - 73.9 °F 96% 30.10 in 10.0 mi Calm Calm - N/A   Clear
6:55 AM 75.2 °F - 74.1 °F 96% 30.10 in 10.0 mi NNE 3.5 mph - N/A   Clear
7:15 AM 75.7 °F - 74.8 °F 97% 30.11 in 10.0 mi Calm Calm - N/A   Clear
7:35 AM 76.5 °F - 75.2 °F 96% 30.11 in 10.0 mi Calm Calm - N/A   Clear
7:55 AM 77.0 °F - 75.2 °F 94% 30.12 in 10.0 mi Calm Calm - N/A   Clear
8:15 AM 79.5 °F - 76.8 °F 91% 30.12 in 10.0 mi Calm Calm - N/A   Clear
8:35 AM 81.9 °F 90.2 °F 77.5 °F 87% 30.13 in 10.0 mi Calm Calm - N/A   Clear
8:55 AM 83.7 °F 94.1 °F 77.9 °F 83% 30.13 in 10.0 mi Calm Calm - N/A   Clear
9:15 AM 85.3 °F 96.7 °F 77.5 °F 78% 30.13 in 10.0 mi Calm Calm - N/A   Clear
9:35 AM 86.0 °F 98.3 °F 78.1 °F 77% 30.13 in 10.0 mi Calm Calm - N/A   Clear
9:55 AM 87.3 °F 100.4 °F 78.1 °F 74% 30.13 in 10.0 mi NNW 3.5 mph - N/A   Clear
10:15 AM 88.3 °F 102.3 °F 78.3 °F 72% 30.13 in 10.0 mi NNW 5.8 mph - N/A   Clear
10:35 AM 89.1 °F 101.9 °F 77.4 °F 68% 30.14 in 10.0 mi Calm Calm - N/A   Clear
10:55 AM 89.4 °F 102.9 °F 77.7 °F 68% 30.14 in 10.0 mi Calm Calm - N/A   Clear
11:15 AM 90.1 °F 102.4 °F 76.6 °F 64% 30.14 in 10.0 mi Calm Calm - N/A   Clear
11:35 AM 92.3 °F 105.5 °F 76.8 °F 60% 30.14 in 10.0 mi East 5.8 mph - N/A   Scattered Clouds
11:55 AM 92.3 °F 105.5 °F 76.5 °F 60% 30.14 in 10.0 mi Calm Calm - N/A   Scattered Clouds
12:15 PM 91.9 °F 104.5 °F 76.3 °F 60% 30.14 in 10.0 mi West 3.5 mph - N/A   Mostly Cloudy
12:35 PM 93.7 °F 107.9 °F 77.0 °F 58% 30.14 in 10.0 mi NNW 4.6 mph - N/A   Scattered Clouds
12:55 PM 93.9 °F 109.1 °F 77.5 °F 59% 30.13 in 10.0 mi SE 4.6 mph - N/A   Mostly Cloudy
1:15 PM 93.9 °F 106.9 °F 75.9 °F 56% 30.12 in 10.0 mi SW 4.6 mph - N/A   Scattered Clouds
1:35 PM 93.9 °F 105.4 °F 75.2 °F 54% 30.11 in 10.0 mi Calm Calm - N/A Thunderstorm Scattered Clouds
1:55 PM 91.4 °F 105.1 °F 77.0 °F 63% 30.11 in 10.0 mi WSW 9.2 mph - N/A Thunderstorm Thunderstorm
2:15 PM 84.9 °F 89.1 °F 69.6 °F 60% 30.12 in - West 17.3 mph 21.9 mph N/A Thunderstorm Thunderstorm
2:35 PM 76.3 °F - 70.9 °F 83% 30.15 in 7.0 mi NW 19.6 mph 33.4 mph N/A Rain , Thunderstorm Thunderstorms and Rain
2:55 PM 75.0 °F - 72.9 °F 93% 30.14 in 10.0 mi SSW 9.2 mph - 0.01 in Rain , Thunderstorm Thunderstorms and Rain
3:15 PM 75.9 °F - 73.6 °F 92% 30.11 in 7.0 mi East 4.6 mph - N/A Thunderstorm Mostly Cloudy
3:35 PM 76.3 °F - 73.6 °F 91% 30.12 in 10.0 mi East 4.6 mph - N/A Thunderstorm Scattered Clouds
3:55 PM 77.0 °F - 73.4 °F 89% 30.12 in 10.0 mi ESE 3.5 mph - N/A Rain , Thunderstorm Light Thunderstorms and Rain
4:15 PM 76.8 °F - 73.0 °F 88% 30.12 in 10.0 mi ENE 3.5 mph - N/A   Clear
4:35 PM 76.8 °F - 73.0 °F 88% 30.11 in 10.0 mi ENE 3.5 mph - N/A   Clear
4:55 PM 76.6 °F - 72.7 °F 87% 30.12 in 10.0 mi NE 6.9 mph - N/A   Clear
5:15 PM 76.6 °F - 73.0 °F 89% 30.12 in 10.0 mi NE 3.5 mph - N/A Thunderstorm Clear
5:35 PM 75.9 °F - 72.9 °F 90% 30.12 in 10.0 mi ENE 5.8 mph - N/A   Clear
5:55 PM 75.2 °F - 73.2 °F 94% 30.12 in 7.0 mi East 5.8 mph - 0.01 in Rain Light Rain
6:35 PM 74.7 °F - 73.0 °F 95% 30.11 in 7.0 mi East 3.5 mph - N/A Rain , Thunderstorm Light Thunderstorms and Rain
6:55 PM 73.9 °F - 72.1 °F 94% 30.10 in 10.0 mi East 4.6 mph - 0.01 in Rain Light Rain
7:15 PM 74.1 °F - 72.7 °F 95% 30.10 in 7.0 mi Calm Calm - 0.01 in Rain Light Rain
7:35 PM 73.9 °F - 72.7 °F 96% 30.09 in 7.0 mi Calm Calm - 0.03 in Rain Light Rain
7:55 PM 73.8 °F - 72.5 °F 96% 30.10 in 10.0 mi Calm Calm - 0.03 in Rain Light Rain
8:15 PM 73.8 °F - 72.7 °F 96% 30.10 in 7.0 mi ESE 4.6 mph - 0.01 in Rain Light Rain
8:35 PM 73.6 °F - 72.5 °F 96% 30.10 in 10.0 mi ESE 3.5 mph - 0.01 in Rain Light Rain
8:55 PM 73.8 °F - 72.5 °F 96% 30.10 in 10.0 mi SSE 4.6 mph - 0.02 in   Clear
9:15 PM 73.8 °F - 72.7 °F 96% 30.11 in 10.0 mi Calm Calm - N/A   Clear
9:35 PM 73.8 °F - 72.7 °F 96% 30.11 in 10.0 mi Calm Calm - N/A   Clear
9:55 PM 73.8 °F - 72.7 °F 96% 30.11 in 10.0 mi Calm Calm - N/A   Clear
10:15 PM 73.9 °F - 72.9 °F 96% 30.10 in 10.0 mi South 3.5 mph - N/A   Clear
10:35 PM 73.8 °F - 72.9 °F 97% 30.11 in 10.0 mi South 4.6 mph - N/A   Clear
11:15 PM 73.2 °F - 72.0 °F 96% 30.11 in - South 4.6 mph - N/A   Unknown
11:35 PM 73.0 °F - 72.0 °F 96% 30.11 in 10.0 mi SSW 3.5 mph - N/A   Clear
11:55 PM 72.5 °F - 71.1 °F 95% 30.11 in 10.0 mi Calm Calm - N/A   Clear